[[{"header":{"parameterUnit":"m.s-1","parameterCategory":1,"la1":30.2991,"la2":30.254,"lo1":-89.0895,"lo2":-89.0444,"dy":0.0017,"dx":0.0017,"nx":28,"ny":28,"refTime":"2023-08-01T09:00:00:Z","depth":0,"parameterNumber":2,"parameterNumberName":"U-component_of_WINDS"},"data":[0,0,0,0,0,0,0,0,0,0,0,0,0,0,0,0,0,0,0,0,0,0,0,0,0,0,0,0,0,0,0,0,0,0,0,0,0,0,0,0,0,0,0,0,0,0,0,0,0,0,0,0,0,0,0,0,0,0,2.3794,2.3793,0,2.3745,2.3745,2.3744,2.3628,2.3626,2.3623,2.3621,2.3572,2.3573,2.3574,0,0,0,0,0,0,0,0,0,0,0,0,0,2.3785,2.3785,2.3794,2.3793,2.3792,2.3745,2.3745,2.3744,2.3628,2.3625,2.3623,2.362,2.3572,2.3573,2.3574,0,0,0,0,0,0,0,0,0,0,0,0,0,2.3768,2.3786,2.3794,2.3729,2.3723,2.3746,2.3745,2.3744,2.3629,2.3625,2.3622,2.3618,2.3571,2.3573,2.3574,2.3656,0,0,2.3579,2.3579,0,0,0,0,0,0,0,0,2.3769,2.3768,2.3739,2.3734,2.3727,2.3689,2.3724,2.3715,2.363,2.3665,2.3621,2.3617,2.3614,2.3612,2.3611,2.3654,2.3652,2.3579,2.358,2.358,2.3581,0,0,0,0,0,0,0,2.377,2.377,2.3774,2.3739,2.3731,2.3702,2.3696,2.3721,2.366,2.3661,2.3653,2.3649,2.361,2.361,2.3609,2.3651,2.3579,2.358,2.3581,2.3582,2.3755,2.3759,0,0,0,0,0,0,2.3781,2.3771,2.3776,2.3773,2.3739,2.3705,2.3698,2.3705,2.366,2.3649,2.3652,2.3643,2.3609,2.3607,2.3607,2.3697,2.358,2.3582,2.3583,2.3752,2.3756,2.376,0,0,0,0,0,0,2.3781,2.3782,2.3778,2.377,2.3767,2.3709,2.3718,2.3706,2.3705,2.3653,2.3641,2.3663,2.3606,2.3604,2.3644,2.3693,2.3582,2.3584,2.3747,2.3753,2.3758,2.388,0,0,0,0,0,0,2.3781,2.3783,2.3814,2.3771,2.3768,2.3817,2.3721,2.3707,2.3708,2.3696,2.366,2.365,2.3603,2.3642,2.3645,2.3693,2.3585,2.3743,2.375,2.3757,2.3871,2.3889,2.3904,0,0,0,0,0,2.3781,2.3851,2.3816,2.3817,2.3805,2.382,2.3818,2.3762,2.3713,2.3742,2.3708,2.3651,2.3688,2.3647,2.365,2.3699,2.3739,2.3748,2.3756,2.3864,2.3886,2.3904,0,0,0,0,0,0,2.3902,2.3844,2.3805,2.3863,2.3847,2.38,2.3837,2.3787,2.3785,2.3775,2.3706,2.3698,2.3747,2.3727,2.3683,2.3774,2.3704,2.3714,2.3785,2.3805,2.3822,2.3825,2.3586,0,0,0,0,0,2.3935,2.3952,2.3901,2.3957,2.3951,2.3896,2.39,2.3858,2.3839,2.3832,2.38,2.3784,2.3791,2.3797,2.3802,2.3868,2.3857,2.3903,2.392,2.3934,2.3942,2.3973,2.3992,2.3788,2.3788,2.3788,0,0,2.4005,2.3975,2.399,2.398,2.3963,2.3981,2.3891,2.3914,2.3927,2.3835,2.3869,2.3846,2.3823,2.3876,2.3897,2.3861,2.3996,2.3944,2.3956,2.3956,2.3983,2.4003,2.402,2.3794,2.3793,2.3792,0,0,2.4139,2.412,2.4162,2.4147,2.4121,2.4083,2.4094,2.4054,2.4035,2.4068,2.3999,2.4012,2.4028,2.4013,2.4007,2.4134,2.4081,2.4138,2.4224,2.4254,2.427,2.4284,2.4327,2.4343,2.4147,2.4147,2.4147,0,2.4228,2.4252,2.4191,2.4218,2.4215,2.4132,2.4174,2.4162,2.414,2.4139,2.4099,2.4114,2.4093,2.4139,2.417,2.4169,2.4177,2.4141,2.4273,2.4286,2.4298,2.4338,2.4355,2.4154,2.4153,2.4152,2.4152,0,2.4362,2.438,2.4418,2.4397,2.4398,2.4433,2.4376,2.4385,2.4342,2.4309,2.4343,2.4314,2.431,2.4318,2.4278,2.4358,2.4336,2.4286,2.4213,2.4326,2.4362,2.4377,2.4164,2.4161,2.4159,2.4157,0,0,2.4572,2.4515,2.4529,2.4517,2.4482,2.4495,2.4525,2.452,2.4528,2.4515,2.4537,2.4551,2.4503,2.4497,2.4454,2.4481,2.458,2.4427,2.4425,2.4454,2.4664,2.4701,2.472,2.4545,2.4548,2.455,2.4665,0,2.4696,2.4744,2.4689,2.4748,2.4763,2.4683,2.4709,2.469,2.4659,2.4667,2.4632,2.4642,2.458,2.4575,2.4599,2.4563,2.4621,2.4554,2.4564,2.4565,2.457,2.4739,2.4779,2.4889,2.4679,2.4682,2.4683,0,2.4848,2.484,2.4901,2.4859,2.4863,2.4888,2.4877,2.4886,2.4862,2.4837,2.4829,2.4777,2.4803,2.4734,2.4766,2.4722,2.4723,2.4706,2.4709,2.4706,2.463,2.4739,2.4923,2.4939,2.4706,2.4704,2.4702,0,2.4991,2.4997,2.5033,2.5026,2.4979,2.4997,2.4979,2.4951,2.4951,2.4941,2.494,2.4935,2.4931,2.4928,2.4875,2.483,2.4914,2.4841,2.4892,2.4894,2.4913,2.4912,2.5097,2.4917,2.4917,2.4916,2.4916,0,2.5135,2.5175,2.5096,2.5119,2.516,2.5096,2.5138,2.5112,2.5087,2.5102,2.5034,2.5049,2.4979,2.4986,2.4945,2.4977,2.4977,2.4957,2.4945,2.4962,2.4964,2.496,2.495,2.492,2.492,2.4919,2.4918,0,2.5302,2.5252,2.5285,2.5238,2.5226,2.5259,2.5217,2.5235,2.5199,2.5219,2.522,2.5163,2.5168,2.5115,2.5111,2.5083,2.5133,2.5109,2.5141,2.5133,2.5186,2.5181,2.5374,2.5395,2.5204,2.5206,2.5207,0,2.5397,2.5425,2.538,2.5384,2.5368,2.5377,2.5376,2.5313,2.5315,2.5288,2.5309,2.5308,2.5303,2.5315,2.5273,2.5268,2.5242,2.531,2.5241,2.5256,2.524,2.5239,2.524,2.5324,2.5327,2.5329,2.533,0,2.5568,2.5541,2.5542,2.5533,2.5533,2.5523,2.5509,2.5517,2.5448,2.5453,2.5457,2.5454,2.5447,2.5447,2.5433,2.5413,2.536,2.5352,2.5363,2.538,2.5397,2.5386,2.5178,2.5348,2.5346,2.5345,2.5344,2.5343,2.57,2.572,2.5691,2.5693,2.5676,2.5663,2.5677,2.5642,2.5644,2.5633,2.5596,2.5606,2.5579,2.5555,2.554,2.5545,2.5512,2.5529,2.5533,2.5538,2.5547,2.5397,2.5543,2.5543,2.5542,2.5542,2.5541,0,2.5866,2.5843,2.5846,2.5827,2.5828,2.5778,2.5759,2.5763,2.5772,2.5751,2.5748,2.5751,2.5749,2.5707,2.5699,2.5712,2.5687,2.5712,2.571,2.5705,2.5578,2.5568,2.5732,2.5732,2.5732,2.5732,2.5732,2.5732,2.5953,2.5984,2.5953,2.5974,2.595,2.5958,2.5951,2.5939,2.5921,2.5927,2.5925,2.5897,2.5867,2.5857,2.5852,2.584,2.5839,2.5872,2.5851,2.5733,2.5715,2.5697,2.5687,2.5873,2.5873,2.5977,2.5978,2.5979]},{"header":{"parameterUnit":"m.s-1","parameterCategory":1,"la1":30.2991,"la2":30.254,"lo1":-89.0895,"lo2":-89.0444,"dy":0.0017,"dx":0.0017,"nx":28,"ny":28,"refTime":"2023-08-01T09:00:00:Z","depth":0,"parameterNumber":3,"parameterNumberName":"V-component_of_WINDS"},"data":[0,0,0,0,0,0,0,0,0,0,0,0,0,0,0,0,0,0,0,0,0,0,0,0,0,0,0,0,0,0,0,0,0,0,0,0,0,0,0,0,0,0,0,0,0,0,0,0,0,0,0,0,0,0,0,0,0,0,1.0027,1.003,0,1.0221,1.0223,1.0225,1.0304,1.0304,1.0303,1.0303,1.0504,1.0509,1.0515,0,0,0,0,0,0,0,0,0,0,0,0,0,0.9727,0.9732,1.0027,1.003,1.0032,1.0221,1.0223,1.0226,1.0304,1.0304,1.0303,1.0303,1.0502,1.0509,1.0516,0,0,0,0,0,0,0,0,0,0,0,0,0,0.9883,0.9734,1.0027,1.0094,1.0102,1.022,1.0223,1.0227,1.0304,1.0304,1.0303,1.0302,1.05,1.0508,1.0516,1.0584,0,0,1.0543,1.0547,0,0,0,0,0,0,0,0,0.9874,0.9894,1.0082,1.0089,1.0098,1.0238,1.0191,1.0346,1.0304,1.0227,1.0303,1.0302,1.0416,1.0431,1.0469,1.0593,1.0602,1.0544,1.0549,1.0553,1.0555,0,0,0,0,0,0,0,0.9863,0.9886,1.0104,1.0084,1.0095,1.0115,1.0136,1.0221,1.0323,1.0234,1.024,1.0262,1.042,1.0461,1.0475,1.0605,1.0543,1.0551,1.0557,1.056,1.0792,1.0792,0,0,0,0,0,0,0.9841,0.9876,1.0098,1.011,0.9982,1.0121,1.0145,1.0194,1.0322,1.0341,1.0262,1.0265,1.0446,1.0464,1.0482,1.0568,1.0553,1.0561,1.0566,1.0791,1.0792,1.0793,0,0,0,0,0,0,0.9834,0.986,1.009,0.9995,1.0026,1.0126,1.0181,1.0198,1.0238,1.0344,1.0363,1.0285,1.0446,1.047,1.0557,1.0576,1.0565,1.0573,1.0789,1.0791,1.0792,1.0741,0,0,0,0,0,0,0.9825,0.9857,0.9883,0.9995,1.003,1.0162,1.0182,1.0202,1.0253,1.0258,1.037,1.0388,1.0448,1.0544,1.0566,1.0588,1.0579,1.0788,1.079,1.0792,1.0742,1.0741,1.074,0,0,0,0,0,0.9814,0.9862,0.9884,0.991,1.0065,1.0163,1.0183,1.025,1.0254,1.0281,1.0349,1.0384,1.057,1.0552,1.0578,1.0603,1.0787,1.079,1.0792,1.0742,1.0741,1.074,0,0,0,0,0,0,0.9752,0.9878,0.9904,0.9989,1.0064,1.0176,1.0212,1.0247,1.0324,1.0326,1.0407,1.0431,1.0512,1.0566,1.0543,1.0674,1.0682,1.0689,1.0635,1.0635,1.0634,1.062,1.0586,0,0,0,0,0,0.9748,0.9815,0.9922,0.9987,1.0024,1.0111,1.0156,1.0201,1.0283,1.0315,1.0389,1.0468,1.0544,1.0592,1.0669,1.075,1.0775,1.0779,1.0778,1.0777,1.0783,1.0829,1.0832,1.08,1.08,1.08,0,0,0.9741,0.9818,0.9856,0.9977,1.004,1.0109,1.0138,1.0209,1.0261,1.0327,1.0413,1.047,1.0563,1.0647,1.0688,1.0695,1.0797,1.078,1.0778,1.0785,1.0832,1.0834,1.0837,1.0801,1.0801,1.0801,0,0,0.9763,0.9828,0.9889,0.9951,1.0046,1.0104,1.0118,1.0224,1.0263,1.0351,1.0401,1.0464,1.0594,1.0658,1.0707,1.075,1.0786,1.0773,1.0769,1.0813,1.0815,1.0818,1.0833,1.0838,1.0778,1.0778,1.0778,0,0.9743,0.9847,0.9916,0.9985,1.0036,1.0096,1.0158,1.0216,1.0331,1.0366,1.0371,1.0534,1.0601,1.07,1.0711,1.0749,1.0768,1.0761,1.0809,1.0813,1.0816,1.0832,1.0837,1.0776,1.0776,1.0776,1.0776,0,0.9817,0.9889,0.9926,1.0034,1.009,1.0155,1.0234,1.0282,1.0321,1.0378,1.0466,1.0548,1.0641,1.0668,1.0708,1.0773,1.0774,1.0793,1.0803,1.0816,1.0832,1.0838,1.0773,1.0773,1.0774,1.0775,0,0,0.9808,0.995,0.9963,1.0012,1.0121,1.0178,1.0245,1.0334,1.0374,1.0451,1.0509,1.0616,1.0634,1.069,1.0738,1.0776,1.0805,1.0791,1.0794,1.0791,1.088,1.0865,1.0871,1.0828,1.0829,1.0831,1.0872,0,0.9844,0.9966,1.0029,1.0124,1.0191,1.0248,1.0307,1.0379,1.0434,1.0499,1.0559,1.0634,1.0652,1.0686,1.0726,1.0792,1.0824,1.079,1.0884,1.0886,1.0859,1.0879,1.0864,1.09,1.0879,1.088,1.0881,0,0.9904,0.9978,1.0079,1.0178,1.0208,1.026,1.0346,1.0407,1.049,1.0527,1.0588,1.0634,1.0707,1.0711,1.0812,1.0788,1.083,1.0868,1.0871,1.0883,1.0885,1.0892,1.0913,1.0918,1.0891,1.0891,1.089,0,0.9886,1.0011,1.0088,1.0128,1.0245,1.028,1.0331,1.0413,1.0462,1.0538,1.0571,1.0654,1.07,1.0763,1.0831,1.0827,1.0926,1.0935,1.0959,1.0957,1.0978,1.0976,1.1006,1.1004,1.1004,1.1003,1.1003,0,0.9921,0.998,1.0081,1.0128,1.0197,1.0268,1.0334,1.0389,1.0462,1.0521,1.0576,1.063,1.0716,1.0781,1.0834,1.091,1.093,1.0962,1.0976,1.0957,1.0953,1.0986,1.0986,1.1005,1.1005,1.1004,1.1004,0,0.9913,0.9983,1.007,1.0173,1.02,1.0246,1.0334,1.0382,1.0438,1.0512,1.0534,1.0622,1.0701,1.0774,1.0881,1.0916,1.0993,1.101,1.0964,1.0972,1.0991,1.0988,1.1044,1.1055,1.1045,1.1045,1.1045,0,0.9931,0.9978,1.0084,1.0127,1.0176,1.0244,1.0294,1.0366,1.0416,1.0513,1.0549,1.0632,1.0702,1.0826,1.09,1.0981,1.1001,1.1015,1.1014,1.0993,1.1001,1.0997,1.1002,1.1014,1.1014,1.1013,1.1013,0,0.9954,0.9986,1.0055,1.0136,1.0193,1.0261,1.033,1.0362,1.0447,1.05,1.0581,1.0635,1.0742,1.0823,1.0912,1.0965,1.1004,1.1013,1.1023,1.1005,1.0976,1.0992,1.0961,1.1012,1.1012,1.1012,1.1012,1.1012,0.9961,1.0004,1.0085,1.016,1.0219,1.0282,1.0332,1.0393,1.0461,1.0553,1.0591,1.0673,1.0754,1.0877,1.0929,1.0995,1.1003,1.1017,1.1021,1.1023,1.1019,1.0965,1.1011,1.1011,1.1012,1.1012,1.1012,0,0.9987,1.0041,1.0109,1.0203,1.0262,1.029,1.0368,1.0416,1.0486,1.0558,1.0625,1.0717,1.0796,1.0875,1.0959,1.0995,1.1015,1.1015,1.1013,1.1025,1.1008,1.0991,1.0998,1.0998,1.0998,1.0998,1.0998,1.0998,1.0008,1.0083,1.0123,1.0228,1.0283,1.0362,1.0404,1.0462,1.052,1.0619,1.0684,1.0735,1.081,1.0899,1.0972,1.0994,1.1022,1.1017,1.1043,1.1026,1.1026,1.1027,1.1011,1.1022,1.1022,1.1055,1.1055,1.1055]}]]